Time,TemperatureF,DewpointF,PressureIn,WindDirection,WindDirectionDegrees,WindSpeedMPH,WindSpeedGustMPH,Humidity,HourlyPrecipIn,Conditions,Clouds,dailyrainin,SolarRadiationWatts/m^2,SoftwareType,DateUTC
2013-05-02 00:02:00,74.8,27.1,-100.00,South,171,2.0,9.0,17,0.00,,,0.05,0.0,meteohub,2013-05-02 04:02:00,
2013-05-02 00:07:00,75.0,27.3,-100.00,SSE,164,0.0,9.0,17,0.00,,,0.05,0.0,meteohub,2013-05-02 04:07:00,
2013-05-02 00:12:00,75.0,27.3,-100.00,SSW,206,3.0,7.0,17,0.00,,,0.05,0.0,meteohub,2013-05-02 04:12:00,
2013-05-02 00:17:00,75.0,27.3,-100.00,NNW,328,1.0,6.0,17,0.00,,,0.05,0.0,meteohub,2013-05-02 04:17:00,
2013-05-02 00:22:00,74.3,26.6,-100.00,NW,314,4.0,9.0,17,0.00,,,0.05,0.0,meteohub,2013-05-02 04:22:00,
2013-05-02 00:27:00,73.9,26.4,-100.00,NW,315,0.0,10.0,17,0.00,,,0.05,0.0,meteohub,2013-05-02 04:27:00,
2013-05-02 00:32:00,73.8,26.2,-100.00,NW,315,0.0,10.0,17,0.00,,,0.05,0.0,meteohub,2013-05-02 04:32:00,
2013-05-02 00:37:00,73.6,26.1,-100.00,NW,314,3.0,5.0,17,0.00,,,0.05,0.0,meteohub,2013-05-02 04:37:00,
2013-05-02 00:42:00,73.4,25.9,-100.00,NW,315,0.0,5.0,17,0.00,,,0.05,0.0,meteohub,2013-05-02 04:42:00,
2013-05-02 00:47:00,73.2,25.7,-100.00,NW,315,0.0,5.0,17,0.00,,,0.05,0.0,meteohub,2013-05-02 04:47:00,
2013-05-02 00:52:00,73.2,25.7,-100.00,NW,315,0.0,5.0,17,0.00,,,0.05,0.0,meteohub,2013-05-02 04:52:00,
2013-05-02 00:57:00,73.2,25.7,-100.00,North,10,3.0,5.0,17,0.00,,,0.05,0.0,meteohub,2013-05-02 04:57:00,
2013-05-02 01:02:00,73.4,25.9,-100.00,North,10,0.0,7.0,17,0.00,,,0.05,0.0,meteohub,2013-05-02 05:02:00,
2013-05-02 01:07:00,73.6,26.1,-100.00,NNW,345,1.0,7.0,17,0.00,,,0.05,0.0,meteohub,2013-05-02 05:07:00,
2013-05-02 01:12:00,73.6,26.1,-100.00,NNW,345,0.0,7.0,17,0.00,,,0.05,0.0,meteohub,2013-05-02 05:12:00,
2013-05-02 01:17:00,73.6,26.1,-100.00,South,191,3.0,3.0,17,0.00,,,0.05,0.0,meteohub,2013-05-02 05:17:00,
2013-05-02 01:27:00,73.8,27.7,-100.00,SW,216,0.0,6.0,18,0.00,,,0.05,0.0,meteohub,2013-05-02 05:27:00,
2013-05-02 01:32:00,73.9,27.7,-100.00,SSE,162,0.0,6.0,18,0.00,,,0.05,0.0,meteohub,2013-05-02 05:32:00,
2013-05-02 01:37:00,73.9,26.4,-100.00,SSW,205,2.0,6.0,17,0.00,,,0.05,0.0,meteohub,2013-05-02 05:37:00,
2013-05-02 01:42:00,74.1,26.6,-100.00,South,188,5.0,6.0,17,0.00,,,0.05,0.0,meteohub,2013-05-02 05:42:00,
2013-05-02 01:47:00,74.5,26.8,-100.00,WSW,250,2.0,7.0,17,0.00,,,0.05,0.0,meteohub,2013-05-02 05:47:00,
2013-05-02 01:52:00,74.5,26.8,-100.00,ESE,123,2.0,7.0,17,0.00,,,0.05,0.0,meteohub,2013-05-02 05:52:00,
2013-05-02 01:57:00,74.5,26.8,-100.00,ESE,117,2.0,7.0,17,0.00,,,0.05,0.0,meteohub,2013-05-02 05:57:00,
2013-05-02 02:02:00,74.5,26.8,-100.00,WSW,256,2.0,7.0,17,0.00,,,0.05,0.0,meteohub,2013-05-02 06:02:00,
2013-05-02 02:07:00,74.7,25.5,-100.00,SSE,153,1.0,7.0,16,0.00,,,0.05,0.0,meteohub,2013-05-02 06:07:00,
2013-05-02 02:12:00,74.7,25.5,-100.00,South,188,0.0,6.0,16,0.00,,,0.05,0.0,meteohub,2013-05-02 06:12:00,
2013-05-02 02:17:00,74.8,25.7,-100.00,SW,227,3.0,5.0,16,0.00,,,0.05,0.0,meteohub,2013-05-02 06:17:00,
2013-05-02 02:22:00,75.0,25.7,-100.00,South,185,1.0,6.0,16,0.00,,,0.05,0.0,meteohub,2013-05-02 06:22:00,
2013-05-02 02:27:00,75.0,24.3,-100.00,SSW,193,0.0,6.0,15,0.00,,,0.05,0.0,meteohub,2013-05-02 06:27:00,
2013-05-02 02:32:00,75.4,24.4,-100.00,SSE,161,0.0,6.0,15,0.00,,,0.05,0.0,meteohub,2013-05-02 06:32:00,
2013-05-02 02:37:00,75.6,24.6,-100.00,SSE,160,2.0,6.0,15,0.00,,,0.05,0.0,meteohub,2013-05-02 06:37:00,
2013-05-02 02:42:00,75.6,24.6,-100.00,South,188,2.0,7.0,15,0.00,,,0.05,0.0,meteohub,2013-05-02 06:42:00,
2013-05-02 02:47:00,75.6,24.6,-100.00,SSE,148,0.0,7.0,15,0.00,,,0.05,0.0,meteohub,2013-05-02 06:47:00,
2013-05-02 02:52:00,75.7,24.8,-100.00,South,169,1.0,7.0,15,0.00,,,0.05,0.0,meteohub,2013-05-02 06:52:00,
2013-05-02 02:57:00,75.6,24.6,-100.00,South,181,1.0,5.0,15,0.00,,,0.05,0.0,meteohub,2013-05-02 06:57:00,
2013-05-02 03:02:00,75.6,24.6,-100.00,South,179,3.0,5.0,15,0.00,,,0.05,0.0,meteohub,2013-05-02 07:02:00,
2013-05-02 03:07:00,75.6,24.6,-100.00,SSE,161,2.0,5.0,15,0.00,,,0.05,0.0,meteohub,2013-05-02 07:07:00,
2013-05-02 03:12:00,75.7,24.8,-100.00,WSW,238,0.0,7.0,15,0.00,,,0.05,0.0,meteohub,2013-05-02 07:12:00,
2013-05-02 03:17:00,75.7,24.8,-100.00,SSE,167,4.0,7.0,15,0.00,,,0.05,0.0,meteohub,2013-05-02 07:17:00,
2013-05-02 03:22:00,75.6,24.6,-100.00,SE,130,5.0,9.0,15,0.00,,,0.05,0.0,meteohub,2013-05-02 07:22:00,
2013-05-02 03:27:00,75.4,24.4,-100.00,South,172,4.0,9.0,15,0.00,,,0.05,0.0,meteohub,2013-05-02 07:27:00,
2013-05-02 03:32:00,75.4,24.4,-100.00,ESE,103,1.0,9.0,15,0.00,,,0.05,0.0,meteohub,2013-05-02 07:32:00,
2013-05-02 03:37:00,75.4,24.4,-100.00,ESE,113,5.0,6.0,15,0.00,,,0.05,0.0,meteohub,2013-05-02 07:37:00,
2013-05-02 03:42:00,75.4,24.4,-100.00,South,182,3.0,6.0,15,0.00,,,0.05,0.0,meteohub,2013-05-02 07:42:00,
2013-05-02 03:47:00,75.4,24.4,-100.00,SW,230,6.0,9.0,15,0.00,,,0.05,0.0,meteohub,2013-05-02 07:47:00,
2013-05-02 03:52:00,75.4,24.4,-100.00,South,188,4.0,9.0,15,0.00,,,0.05,0.0,meteohub,2013-05-02 07:52:00,
2013-05-02 03:57:00,75.4,24.4,-100.00,SSE,153,1.0,7.0,15,0.00,,,0.05,0.0,meteohub,2013-05-02 07:57:00,
2013-05-02 04:02:00,75.4,24.4,-100.00,SE,145,3.0,7.0,15,0.00,,,0.05,0.0,meteohub,2013-05-02 08:02:00,
2013-05-02 04:12:00,75.4,26.1,-100.00,ESE,106,2.0,7.0,16,0.00,,,0.05,0.0,meteohub,2013-05-02 08:12:00,
2013-05-02 04:17:00,75.4,26.1,-100.00,SSE,167,3.0,7.0,16,0.00,,,0.05,0.0,meteohub,2013-05-02 08:17:00,
2013-05-02 04:22:00,75.4,26.1,-100.00,SE,127,3.0,7.0,16,0.00,,,0.05,0.0,meteohub,2013-05-02 08:22:00,
2013-05-02 04:27:00,75.7,26.4,-100.00,South,182,0.0,7.0,16,0.00,,,0.05,0.0,meteohub,2013-05-02 08:27:00,
2013-05-02 04:32:00,75.7,26.4,-100.00,SSE,163,0.0,7.0,16,0.00,,,0.05,0.0,meteohub,2013-05-02 08:32:00,
2013-05-02 04:37:00,75.7,26.4,-100.00,SE,130,0.0,6.0,16,0.00,,,0.05,0.0,meteohub,2013-05-02 08:37:00,
2013-05-02 04:42:00,75.6,26.2,-100.00,South,180,2.0,8.0,16,0.00,,,0.05,0.0,meteohub,2013-05-02 08:42:00,
2013-05-02 04:47:00,75.6,24.6,-100.00,South,186,5.0,8.0,15,0.00,,,0.05,0.0,meteohub,2013-05-02 08:47:00,
2013-05-02 04:52:00,75.7,24.8,-100.00,SSE,164,3.0,8.0,15,0.00,,,0.05,0.0,meteohub,2013-05-02 08:52:00,
2013-05-02 04:57:00,75.7,24.8,-100.00,East,96,1.0,7.0,15,0.00,,,0.05,0.0,meteohub,2013-05-02 08:57:00,
2013-05-02 05:02:00,75.7,24.8,-100.00,SSE,155,3.0,6.0,15,0.00,,,0.05,0.0,meteohub,2013-05-02 09:02:00,
2013-05-02 05:07:00,75.9,25.0,-100.00,South,180,3.0,6.0,15,0.00,,,0.05,0.0,meteohub,2013-05-02 09:07:00,
2013-05-02 05:12:00,76.1,25.2,-100.00,SSE,149,5.0,9.0,15,0.00,,,0.05,0.0,meteohub,2013-05-02 09:12:00,
2013-05-02 05:17:00,76.5,25.3,-100.00,SSW,192,5.0,9.0,15,0.00,,,0.05,0.0,meteohub,2013-05-02 09:17:00,
2013-05-02 05:22:00,76.6,25.5,-100.00,South,187,6.0,9.0,15,0.00,,,0.05,0.0,meteohub,2013-05-02 09:22:00,
2013-05-02 05:27:00,76.6,25.5,-100.00,SSW,208,5.0,9.0,15,0.00,,,0.05,0.0,meteohub,2013-05-02 09:27:00,
2013-05-02 05:32:00,76.6,25.5,-100.00,SSE,161,3.0,11.0,15,0.00,,,0.05,0.0,meteohub,2013-05-02 09:32:00,
2013-05-02 05:37:00,76.6,25.5,-100.00,South,187,6.0,11.0,15,0.00,,,0.05,0.0,meteohub,2013-05-02 09:37:00,
2013-05-02 05:42:00,76.6,25.5,-100.00,SSW,209,6.0,11.0,15,0.00,,,0.05,0.0,meteohub,2013-05-02 09:42:00,
2013-05-02 05:47:00,76.6,25.5,-100.00,SSW,195,12.0,12.0,15,0.00,,,0.05,0.0,meteohub,2013-05-02 09:47:00,
2013-05-02 05:52:00,76.6,25.5,-100.00,South,190,4.0,13.0,15,0.00,,,0.05,0.0,meteohub,2013-05-02 09:52:00,
2013-05-02 05:57:00,76.8,25.7,-100.00,South,187,5.0,13.0,15,0.00,,,0.05,0.0,meteohub,2013-05-02 09:57:00,
2013-05-02 06:02:00,77.2,25.9,-100.00,SSW,202,3.0,13.0,15,0.00,,,0.05,0.0,meteohub,2013-05-02 10:02:00,
2013-05-02 06:07:00,77.0,25.9,-100.00,SSE,162,10.0,12.0,15,0.00,,,0.05,0.0,meteohub,2013-05-02 10:07:00,
2013-05-02 06:12:00,77.0,25.9,-100.00,SSW,207,5.0,10.0,15,0.00,,,0.05,0.0,meteohub,2013-05-02 10:12:00,
2013-05-02 06:17:00,77.0,25.9,-100.00,South,190,7.0,12.0,15,0.00,,,0.05,0.0,meteohub,2013-05-02 10:17:00,
2013-05-02 06:27:00,77.2,25.9,-100.00,South,175,3.0,11.0,15,0.00,,,0.05,0.0,meteohub,2013-05-02 10:27:00,
2013-05-02 06:32:00,77.2,24.3,-100.00,SSE,168,5.0,11.0,14,0.00,,,0.05,0.0,meteohub,2013-05-02 10:32:00,
2013-05-02 06:37:00,76.8,25.7,-100.00,South,188,5.0,10.0,15,0.00,,,0.05,0.0,meteohub,2013-05-02 10:37:00,
2013-05-02 06:42:00,77.0,25.9,-100.00,SSW,200,5.0,10.0,15,0.00,,,0.05,0.0,meteohub,2013-05-02 10:42:00,
2013-05-02 06:47:00,77.2,25.9,-100.00,SSE,164,2.0,10.0,15,0.00,,,0.05,0.0,meteohub,2013-05-02 10:47:00,
2013-05-02 06:52:00,77.2,25.9,-100.00,South,172,2.0,10.0,15,0.00,,,0.05,0.0,meteohub,2013-05-02 10:52:00,
2013-05-02 06:57:00,77.2,25.9,-100.00,South,182,5.0,10.0,15,0.03,,,0.08,0.0,meteohub,2013-05-02 10:57:00,
2013-05-02 07:02:00,76.5,25.3,-100.00,SSE,165,3.0,9.0,15,0.07,,,0.12,11.0,meteohub,2013-05-02 11:02:00,
2013-05-02 07:07:00,75.7,24.8,-100.00,South,170,4.0,6.0,15,0.07,,,0.12,16.0,meteohub,2013-05-02 11:07:00,
2013-05-02 07:12:00,75.4,24.4,-100.00,South,171,4.0,6.0,15,0.07,,,0.12,21.0,meteohub,2013-05-02 11:12:00,
2013-05-02 07:17:00,75.2,24.4,-100.00,South,170,0.0,5.0,15,0.07,,,0.12,30.0,meteohub,2013-05-02 11:17:00,
2013-05-02 07:22:00,75.4,24.4,-100.00,SE,140,0.0,6.0,15,0.07,,,0.12,47.0,meteohub,2013-05-02 11:22:00,
2013-05-02 07:27:00,75.6,24.6,-100.00,South,182,0.0,6.0,15,0.07,,,0.12,76.0,meteohub,2013-05-02 11:27:00,
2013-05-02 07:32:00,75.7,24.8,-100.00,South,171,2.0,6.0,15,0.07,,,0.12,44.0,meteohub,2013-05-02 11:32:00,
2013-05-02 07:37:00,75.9,25.0,-100.00,SSW,202,3.0,8.0,15,0.07,,,0.12,53.0,meteohub,2013-05-02 11:37:00,
2013-05-02 07:42:00,75.9,25.0,-100.00,SE,143,7.0,8.0,15,0.07,,,0.12,84.0,meteohub,2013-05-02 11:42:00,
2013-05-02 07:47:00,76.3,25.2,-100.00,South,182,4.0,8.0,15,0.07,,,0.12,118.0,meteohub,2013-05-02 11:47:00,
2013-05-02 07:52:00,76.5,25.3,-100.00,SSE,148,1.0,7.0,15,0.07,,,0.12,153.0,meteohub,2013-05-02 11:52:00,
2013-05-02 07:57:00,76.8,25.7,-100.00,SSE,157,5.0,7.0,15,0.01,,,0.12,135.0,meteohub,2013-05-02 11:57:00,
2013-05-02 08:02:00,76.8,24.1,-100.00,SE,140,6.0,10.0,14,0.00,,,0.12,62.0,meteohub,2013-05-02 12:02:00,
2013-05-02 08:07:00,77.2,24.3,-100.00,SSE,164,7.0,10.0,14,0.00,,,0.12,21.0,meteohub,2013-05-02 12:07:00,
2013-05-02 08:17:00,75.4,24.4,-100.00,South,184,6.0,17.0,15,0.00,,,0.12,18.0,meteohub,2013-05-02 12:17:00,
2013-05-02 08:22:00,74.7,25.5,-100.00,SE,140,6.0,17.0,16,0.00,,,0.12,21.0,meteohub,2013-05-02 12:22:00,
2013-05-02 08:27:00,74.3,25.2,-100.00,South,173,4.0,17.0,16,0.00,,,0.12,33.0,meteohub,2013-05-02 12:27:00,
2013-05-02 08:32:00,73.9,25.0,-100.00,SSW,207,4.0,13.0,16,0.00,,,0.12,33.0,meteohub,2013-05-02 12:32:00,
2013-05-02 08:37:00,73.8,24.8,-100.00,SSW,207,1.0,13.0,16,0.00,,,0.12,72.0,meteohub,2013-05-02 12:37:00,
2013-05-02 08:42:00,73.9,25.0,-100.00,South,173,0.0,13.0,16,0.00,,,0.12,118.0,meteohub,2013-05-02 12:42:00,
2013-05-02 08:47:00,74.7,25.5,-100.00,SSE,164,4.0,10.0,16,0.00,,,0.12,146.0,meteohub,2013-05-02 12:47:00,
2013-05-02 08:52:00,75.6,26.2,-100.00,South,171,4.0,9.0,16,0.00,,,0.12,134.0,meteohub,2013-05-02 12:52:00,
2013-05-02 08:57:00,75.7,26.4,-100.00,South,188,4.0,10.0,16,0.00,,,0.12,121.0,meteohub,2013-05-02 12:57:00,
2013-05-02 09:02:00,75.7,26.4,-100.00,South,172,5.0,10.0,16,0.00,,,0.12,130.0,meteohub,2013-05-02 13:02:00,
2013-05-02 09:07:00,75.9,26.4,-100.00,SSE,148,5.0,10.0,16,0.00,,,0.12,90.0,meteohub,2013-05-02 13:07:00,
2013-05-02 09:17:00,75.9,26.4,-100.00,South,186,5.0,12.0,16,0.00,,,0.12,84.0,meteohub,2013-05-02 13:17:00,
2013-05-02 09:22:00,76.3,26.8,-100.00,South,178,5.0,12.0,16,0.00,,,0.12,165.0,meteohub,2013-05-02 13:22:00,
2013-05-02 09:27:00,76.5,27.0,-100.00,South,173,6.0,15.0,16,0.00,,,0.12,287.0,meteohub,2013-05-02 13:27:00,
2013-05-02 09:32:00,76.6,25.5,-100.00,SSW,192,4.0,15.0,15,0.00,,,0.12,308.0,meteohub,2013-05-02 13:32:00,
2013-05-02 09:37:00,77.7,26.4,-100.00,South,172,9.0,15.0,15,0.00,,,0.12,422.0,meteohub,2013-05-02 13:37:00,
2013-05-02 09:42:00,78.3,25.2,-100.00,South,180,3.0,13.0,14,0.00,,,0.12,220.0,meteohub,2013-05-02 13:42:00,
2013-05-02 09:47:00,78.4,25.3,-100.00,SSW,210,4.0,13.0,14,0.00,,,0.12,83.0,meteohub,2013-05-02 13:47:00,
2013-05-02 09:52:00,78.4,25.3,-100.00,South,182,4.0,13.0,14,0.00,,,0.12,127.0,meteohub,2013-05-02 13:52:00,
2013-05-02 09:57:00,78.1,25.0,-100.00,South,175,8.0,13.0,14,0.00,,,0.12,151.0,meteohub,2013-05-02 13:57:00,
2013-05-02 10:02:00,78.1,25.0,-100.00,SE,124,8.0,13.0,14,0.00,,,0.12,176.0,meteohub,2013-05-02 14:02:00,
2013-05-02 10:07:00,78.4,25.3,-100.00,SE,135,6.0,12.0,14,0.00,,,0.12,237.0,meteohub,2013-05-02 14:07:00,
2013-05-02 10:12:00,78.6,25.5,-100.00,SE,144,6.0,13.0,14,0.00,,,0.12,246.0,meteohub,2013-05-02 14:12:00,
2013-05-02 10:17:00,78.6,25.5,-100.00,SE,146,5.0,13.0,14,0.00,,,0.12,200.0,meteohub,2013-05-02 14:17:00,
2013-05-02 10:22:00,78.6,25.5,-100.00,South,184,5.0,13.0,14,0.00,,,0.12,220.0,meteohub,2013-05-02 14:22:00,
2013-05-02 10:27:00,78.6,25.5,-100.00,SSW,196,9.0,12.0,14,0.00,,,0.12,257.0,meteohub,2013-05-02 14:27:00,
2013-05-02 10:32:00,78.4,25.3,-100.00,SSW,192,5.0,12.0,14,0.00,,,0.12,341.0,meteohub,2013-05-02 14:32:00,
2013-05-02 10:37:00,79.0,25.7,-100.00,SE,133,7.0,10.0,14,0.00,,,0.12,227.0,meteohub,2013-05-02 14:37:00,
2013-05-02 10:42:00,79.2,25.9,-100.00,SSE,164,6.0,12.0,14,0.00,,,0.12,156.0,meteohub,2013-05-02 14:42:00,
2013-05-02 10:47:00,78.6,25.5,-100.00,SSE,157,6.0,12.0,14,0.00,,,0.12,121.0,meteohub,2013-05-02 14:47:00,
2013-05-02 10:52:00,78.4,25.3,-100.00,SSW,209,4.0,12.0,14,0.00,,,0.12,102.0,meteohub,2013-05-02 14:52:00,
2013-05-02 10:57:00,77.5,24.6,-100.00,SSE,155,4.0,14.0,14,0.00,,,0.12,72.0,meteohub,2013-05-02 14:57:00,
2013-05-02 11:02:00,76.5,25.3,-100.00,SSW,203,7.0,14.0,15,0.00,,,0.12,76.0,meteohub,2013-05-02 15:02:00,
2013-05-02 11:07:00,75.4,24.4,-100.00,SSE,168,5.0,14.0,15,0.03,,,0.15,65.0,meteohub,2013-05-02 15:07:00,
2013-05-02 11:12:00,75.0,24.3,-100.00,SSW,194,6.0,14.0,15,0.07,,,0.19,69.0,meteohub,2013-05-02 15:12:00,
2013-05-02 11:17:00,74.8,25.7,-100.00,SSW,196,11.0,14.0,16,0.10,,,0.22,76.0,meteohub,2013-05-02 15:17:00,
2013-05-02 11:22:00,74.1,25.0,-100.00,South,182,5.0,12.0,16,0.17,,,0.29,83.0,meteohub,2013-05-02 15:22:00,
2013-05-02 11:32:00,73.9,25.0,-100.00,South,185,2.0,12.0,16,0.23,,,0.35,67.0,meteohub,2013-05-02 15:32:00,
2013-05-02 11:37:00,73.9,26.4,-100.00,South,180,0.0,10.0,17,0.28,,,0.40,62.0,meteohub,2013-05-02 15:37:00,
2013-05-02 11:42:00,73.9,26.4,-100.00,South,178,2.0,7.0,17,0.32,,,0.42,37.0,meteohub,2013-05-02 15:42:00,
2013-05-02 11:47:00,74.5,26.8,-100.00,SSE,150,5.0,6.0,17,0.36,,,0.48,28.0,meteohub,2013-05-02 15:47:00,
2013-05-02 11:57:00,74.1,26.6,-100.00,SSW,195,4.0,10.0,17,0.54,,,0.66,14.0,meteohub,2013-05-02 15:57:00,
2013-05-02 12:02:00,73.9,27.7,-100.00,SSW,202,2.0,10.0,18,0.59,,,0.72,14.0,meteohub,2013-05-02 16:02:00,
2013-05-02 12:07:00,73.9,27.7,-100.00,SSW,202,5.0,10.0,18,0.58,,,0.75,14.0,meteohub,2013-05-02 16:07:00,
2013-05-02 12:12:00,73.9,27.7,-100.00,SW,223,8.0,10.0,18,0.57,,,0.77,5.0,meteohub,2013-05-02 16:12:00,
2013-05-02 12:17:00,73.0,27.0,-100.00,SW,229,4.0,11.0,18,0.59,,,0.85,0.0,meteohub,2013-05-02 16:17:00,
2013-05-02 12:22:00,72.9,27.0,-100.00,South,189,10.0,13.0,18,0.63,,,0.93,5.0,meteohub,2013-05-02 16:22:00,
2013-05-02 12:27:00,72.1,26.2,-100.00,SSW,210,13.0,14.0,18,0.69,,,0.98,11.0,meteohub,2013-05-02 16:27:00,
2013-05-02 12:32:00,72.3,26.4,-100.00,South,184,4.0,20.0,18,0.74,,,1.12,23.0,meteohub,2013-05-02 16:32:00,
2013-05-02 12:37:00,72.1,26.2,-100.00,SE,144,10.0,20.0,18,0.76,,,1.17,28.0,meteohub,2013-05-02 16:37:00,
2013-05-02 12:42:00,72.0,27.5,-100.00,SSW,209,5.0,20.0,19,0.75,,,1.19,26.0,meteohub,2013-05-02 16:42:00,
2013-05-02 12:47:00,72.0,27.5,-100.00,SSW,209,0.0,11.0,19,0.69,,,1.20,37.0,meteohub,2013-05-02 16:47:00,
2013-05-02 12:52:00,72.0,27.5,-100.00,SSW,209,0.0,11.0,19,0.57,,,1.20,46.0,meteohub,2013-05-02 16:52:00,
2013-05-02 12:57:00,72.1,27.7,-100.00,SSW,209,0.0,6.0,19,0.50,,,1.20,47.0,meteohub,2013-05-02 16:57:00,
2013-05-02 13:02:00,72.1,27.7,-100.00,SSW,209,1.0,3.0,19,0.47,,,1.20,47.0,meteohub,2013-05-02 17:02:00,
2013-05-02 13:07:00,72.1,27.7,-100.00,SSW,209,2.0,5.0,19,0.44,,,1.20,30.0,meteohub,2013-05-02 17:07:00,
2013-05-02 13:12:00,72.3,27.7,-100.00,SSW,209,0.0,5.0,19,0.41,,,1.21,32.0,meteohub,2013-05-02 17:12:00,
2013-05-02 13:17:00,72.3,27.7,-100.00,SSW,209,0.0,5.0,19,0.32,,,1.21,28.0,meteohub,2013-05-02 17:17:00,
2013-05-02 13:22:00,72.1,27.7,-100.00,SSW,209,1.0,4.0,19,0.27,,,1.21,18.0,meteohub,2013-05-02 17:22:00,
2013-05-02 13:27:00,72.1,27.7,-100.00,SSW,209,0.0,3.0,19,0.19,,,1.21,5.0,meteohub,2013-05-02 17:27:00,
2013-05-02 13:32:00,72.1,27.7,-100.00,SSW,210,3.0,3.0,19,0.08,,,1.22,11.0,meteohub,2013-05-02 17:32:00,
2013-05-02 13:37:00,72.1,27.7,-100.00,NW,315,3.0,5.0,19,0.05,,,1.22,5.0,meteohub,2013-05-02 17:37:00,
2013-05-02 13:42:00,72.1,27.7,-100.00,NW,315,0.0,5.0,19,0.03,,,1.22,7.0,meteohub,2013-05-02 17:42:00,
2013-05-02 13:47:00,72.0,27.5,-100.00,NW,315,0.0,5.0,19,0.04,,,1.24,7.0,meteohub,2013-05-02 17:47:00,
2013-05-02 13:52:00,72.0,27.5,-100.00,NW,315,0.0,5.0,19,0.04,,,1.24,7.0,meteohub,2013-05-02 17:52:00,
2013-05-02 13:57:00,71.8,27.3,-100.00,NW,315,1.0,2.0,19,0.08,,,1.28,9.0,meteohub,2013-05-02 17:57:00,
2013-05-02 14:02:00,71.8,27.3,-100.00,NW,314,2.0,4.0,19,0.12,,,1.31,14.0,meteohub,2013-05-02 18:02:00,
2013-05-02 14:07:00,71.4,27.0,-100.00,NNW,341,6.0,6.0,19,0.14,,,1.35,11.0,meteohub,2013-05-02 18:07:00,
2013-05-02 14:12:00,71.2,26.8,-100.00,North,350,5.0,10.0,19,0.17,,,1.38,5.0,meteohub,2013-05-02 18:12:00,
2013-05-02 14:17:00,70.9,26.6,-100.00,North,355,1.0,10.0,19,0.18,,,1.38,0.0,meteohub,2013-05-02 18:17:00,
2013-05-02 14:22:00,70.5,26.2,-100.00,North,0,3.0,10.0,19,0.19,,,1.40,7.0,meteohub,2013-05-02 18:22:00,
2013-05-02 14:27:00,70.0,25.9,-100.00,North,355,4.0,12.0,19,0.21,,,1.42,11.0,meteohub,2013-05-02 18:27:00,
2013-05-02 14:32:00,69.8,25.7,-100.00,North,9,4.0,13.0,19,0.20,,,1.42,12.0,meteohub,2013-05-02 18:32:00,
2013-05-02 14:37:00,69.6,26.8,-100.00,NNW,333,3.0,13.0,20,0.22,,,1.44,19.0,meteohub,2013-05-02 18:37:00,
2013-05-02 14:42:00,69.6,26.8,-100.00,NNW,348,4.0,13.0,20,0.23,,,1.46,23.0,meteohub,2013-05-02 18:42:00,
2013-05-02 14:47:00,70.0,27.1,-100.00,NNW,344,5.0,8.0,20,0.22,,,1.46,30.0,meteohub,2013-05-02 18:47:00,
2013-05-02 14:52:00,70.2,27.1,-100.00,NE,41,9.0,9.0,20,0.22,,,1.47,35.0,meteohub,2013-05-02 18:52:00,
2013-05-02 14:57:00,70.3,27.3,-100.00,NW,321,6.0,12.0,20,0.19,,,1.48,44.0,meteohub,2013-05-02 18:57:00,
2013-05-02 15:02:00,70.5,27.5,-100.00,NW,309,4.0,12.0,20,0.16,,,1.49,56.0,meteohub,2013-05-02 19:02:00,
2013-05-02 15:07:00,71.1,28.0,-100.00,NW,314,4.0,12.0,20,0.13,,,1.50,63.0,meteohub,2013-05-02 19:07:00,
2013-05-02 15:12:00,71.2,28.0,-100.00,North,5,4.0,12.0,20,0.13,,,1.51,67.0,meteohub,2013-05-02 19:12:00,
2013-05-02 15:17:00,71.4,28.2,-100.00,NW,304,6.0,12.0,20,0.13,,,1.52,60.0,meteohub,2013-05-02 19:17:00,
2013-05-02 15:22:00,71.6,28.4,-100.00,WNW,295,5.0,12.0,20,0.12,,,1.53,42.0,meteohub,2013-05-02 19:22:00,
2013-05-02 15:32:00,71.6,28.4,-100.00,NNE,32,4.0,18.0,20,0.12,,,1.55,30.0,meteohub,2013-05-02 19:32:00,
2013-05-02 15:37:00,71.8,28.6,-100.00,NW,313,6.0,18.0,20,0.11,,,1.55,28.0,meteohub,2013-05-02 19:37:00,
2013-05-02 15:42:00,71.8,28.6,-100.00,SSW,209,7.0,18.0,20,0.09,,,1.55,25.0,meteohub,2013-05-02 19:42:00,
2013-05-02 15:47:00,71.2,28.0,-100.00,SSW,207,6.0,11.0,20,0.09,,,1.56,21.0,meteohub,2013-05-02 19:47:00,
2013-05-02 15:52:00,71.2,28.0,-100.00,SSW,213,9.0,12.0,20,0.09,,,1.56,18.0,meteohub,2013-05-02 19:52:00,
2013-05-02 15:57:00,71.1,28.0,-100.00,SSE,164,5.0,15.0,20,0.08,,,1.56,16.0,meteohub,2013-05-02 19:57:00,
2013-05-02 16:02:00,71.1,28.0,-100.00,SE,144,12.0,15.0,20,0.07,,,1.56,11.0,meteohub,2013-05-02 20:02:00,
2013-05-02 16:07:00,70.9,26.6,-100.00,SW,215,8.0,19.0,19,0.08,,,1.58,11.0,meteohub,2013-05-02 20:07:00,
2013-05-02 16:12:00,70.9,26.6,-100.00,SSW,205,8.0,19.0,19,0.09,,,1.60,14.0,meteohub,2013-05-02 20:12:00,
2013-05-02 16:17:00,71.1,26.8,-100.00,South,184,5.0,19.0,19,0.10,,,1.62,14.0,meteohub,2013-05-02 20:17:00,
2013-05-02 16:22:00,70.5,26.2,-100.00,SSE,156,7.0,14.0,19,0.12,,,1.65,18.0,meteohub,2013-05-02 20:22:00,
2013-05-02 16:27:00,70.5,26.2,-100.00,SSW,198,4.0,14.0,19,0.14,,,1.68,25.0,meteohub,2013-05-02 20:27:00,
2013-05-02 16:32:00,70.9,26.6,-100.00,ESE,111,6.0,12.0,19,0.14,,,1.69,25.0,meteohub,2013-05-02 20:32:00,
2013-05-02 16:37:00,71.1,26.8,-100.00,South,173,4.0,12.0,19,0.16,,,1.71,23.0,meteohub,2013-05-02 20:37:00,
2013-05-02 16:42:00,71.1,26.8,-100.00,South,183,7.0,14.0,19,0.16,,,1.72,33.0,meteohub,2013-05-02 20:42:00,
2013-05-02 16:47:00,71.2,26.8,-100.00,South,173,4.0,14.0,19,0.17,,,1.73,18.0,meteohub,2013-05-02 20:47:00,
2013-05-02 16:52:00,71.2,26.8,-100.00,SSW,200,5.0,14.0,19,0.19,,,1.75,37.0,meteohub,2013-05-02 20:52:00,
2013-05-02 16:57:00,70.9,26.6,-100.00,SE,146,6.0,14.0,19,0.21,,,1.77,33.0,meteohub,2013-05-02 20:57:00,
2013-05-02 17:02:00,71.1,26.8,-100.00,SSW,194,4.0,14.0,19,0.21,,,1.78,26.0,meteohub,2013-05-02 21:02:00,
2013-05-02 17:07:00,71.1,26.8,-100.00,ESE,122,7.0,14.0,19,0.22,,,1.80,21.0,meteohub,2013-05-02 21:07:00,
2013-05-02 17:12:00,71.1,26.8,-100.00,South,180,3.0,14.0,19,0.20,,,1.80,16.0,meteohub,2013-05-02 21:12:00,
2013-05-02 17:17:00,71.2,26.8,-100.00,SE,142,2.0,10.0,19,0.18,,,1.81,16.0,meteohub,2013-05-02 21:17:00,
2013-05-02 17:22:00,71.1,26.8,-100.00,South,178,9.0,10.0,19,0.17,,,1.82,14.0,meteohub,2013-05-02 21:22:00,
2013-05-02 17:27:00,71.2,26.8,-100.00,SSW,196,6.0,10.0,19,0.16,,,1.82,12.0,meteohub,2013-05-02 21:27:00,
2013-05-02 17:32:00,71.2,26.8,-100.00,SSW,207,4.0,10.0,19,0.15,,,1.85,9.0,meteohub,2013-05-02 21:32:00,
2013-05-02 17:37:00,71.2,25.5,-100.00,South,176,7.0,13.0,18,0.16,,,1.87,9.0,meteohub,2013-05-02 21:37:00,
2013-05-02 17:42:00,71.2,25.5,-100.00,NNW,341,5.0,13.0,18,0.15,,,1.87,9.0,meteohub,2013-05-02 21:42:00,
2013-05-02 17:47:00,71.8,26.1,-100.00,SE,126,11.0,13.0,18,0.15,,,1.89,11.0,meteohub,2013-05-02 21:47:00,
2013-05-02 17:52:00,72.0,26.1,-100.00,SSW,209,9.0,16.0,18,0.16,,,1.91,14.0,meteohub,2013-05-02 21:52:00,
2013-05-02 17:57:00,72.0,26.1,-100.00,SSW,204,9.0,16.0,18,0.15,,,1.92,16.0,meteohub,2013-05-02 21:57:00,
2013-05-02 18:02:00,72.1,26.2,-100.00,SSE,161,6.0,16.0,18,0.17,,,1.96,18.0,meteohub,2013-05-02 22:02:00,
2013-05-02 18:07:00,72.3,26.4,-100.00,SSE,163,4.0,13.0,18,0.19,,,1.99,14.0,meteohub,2013-05-02 22:07:00,
2013-05-02 18:12:00,72.3,26.4,-100.00,ESE,119,10.0,15.0,18,0.19,,,2.00,19.0,meteohub,2013-05-02 22:12:00,
2013-05-02 18:17:00,72.7,26.8,-100.00,SE,137,9.0,15.0,18,0.23,,,2.04,18.0,meteohub,2013-05-02 22:17:00,
2013-05-02 18:22:00,72.3,26.4,-100.00,SSE,150,6.0,14.0,18,0.24,,,2.06,18.0,meteohub,2013-05-02 22:22:00,
2013-05-02 18:27:00,72.3,26.4,-100.00,SSW,201,7.0,14.0,18,0.23,,,2.07,16.0,meteohub,2013-05-02 22:27:00,
2013-05-02 18:32:00,72.3,26.4,-100.00,South,184,6.0,14.0,18,0.22,,,2.08,14.0,meteohub,2013-05-02 22:32:00,
2013-05-02 18:37:00,72.1,26.2,-100.00,SE,132,6.0,14.0,18,0.22,,,2.09,12.0,meteohub,2013-05-02 22:37:00,
2013-05-02 18:42:00,72.1,26.2,-100.00,SW,223,7.0,14.0,18,0.22,,,2.10,12.0,meteohub,2013-05-02 22:42:00,
2013-05-02 18:47:00,72.3,26.4,-100.00,South,184,5.0,16.0,18,0.22,,,2.11,11.0,meteohub,2013-05-02 22:47:00,
2013-05-02 18:52:00,72.1,26.2,-100.00,SSW,193,10.0,16.0,18,0.20,,,2.11,9.0,meteohub,2013-05-02 22:52:00,
2013-05-02 18:57:00,72.3,25.0,-100.00,South,189,9.0,14.0,17,0.18,,,2.12,7.0,meteohub,2013-05-02 22:57:00,
2013-05-02 19:02:00,72.3,25.0,-100.00,South,178,11.0,14.0,17,0.16,,,2.13,7.0,meteohub,2013-05-02 23:02:00,
2013-05-02 19:07:00,72.7,25.3,-100.00,SSW,196,8.0,18.0,17,0.14,,,2.13,5.0,meteohub,2013-05-02 23:07:00,
2013-05-02 19:17:00,72.7,23.9,-100.00,South,191,10.0,18.0,16,0.10,,,2.14,0.0,meteohub,2013-05-02 23:17:00,
2013-05-02 19:22:00,72.9,24.1,-100.00,SSW,211,10.0,14.0,16,0.08,,,2.14,0.0,meteohub,2013-05-02 23:22:00,
2013-05-02 19:27:00,73.0,24.3,-100.00,SSW,200,5.0,15.0,16,0.08,,,2.15,0.0,meteohub,2013-05-02 23:27:00,
2013-05-02 19:32:00,72.9,22.5,-100.00,SSW,196,10.0,18.0,15,0.07,,,2.15,0.0,meteohub,2013-05-02 23:32:00,
2013-05-02 19:37:00,72.9,22.5,-100.00,SW,234,5.0,18.0,15,0.08,,,2.16,0.0,meteohub,2013-05-02 23:37:00,
2013-05-02 19:42:00,73.0,22.6,-100.00,SSW,213,8.0,18.0,15,0.07,,,2.17,0.0,meteohub,2013-05-02 23:42:00,
2013-05-02 19:47:00,73.2,22.8,-100.00,SW,221,15.0,18.0,15,0.07,,,2.18,0.0,meteohub,2013-05-02 23:47:00,
2013-05-02 19:52:00,73.4,23.0,-100.00,SW,226,5.0,19.0,15,0.06,,,2.18,0.0,meteohub,2013-05-02 23:52:00,
2013-05-02 19:57:00,73.2,22.8,-100.00,SSE,155,7.0,19.0,15,0.07,,,2.19,0.0,meteohub,2013-05-02 23:57:00,
2013-05-02 20:02:00,73.2,22.8,-100.00,SSW,196,11.0,19.0,15,0.06,,,2.19,0.0,meteohub,2013-05-03 00:02:00,
2013-05-02 20:07:00,73.2,22.8,-100.00,SSW,204,9.0,16.0,15,0.07,,,0.01,0.0,meteohub,2013-05-03 00:07:00,
2013-05-02 20:12:00,73.0,22.6,-100.00,SSE,154,12.0,16.0,15,0.06,,,0.01,0.0,meteohub,2013-05-03 00:12:00,
2013-05-02 20:17:00,73.8,23.2,-100.00,SSW,196,5.0,17.0,15,0.06,,,0.01,0.0,meteohub,2013-05-03 00:17:00,
2013-05-02 20:22:00,73.6,23.0,-100.00,SW,219,9.0,17.0,15,0.05,,,0.01,0.0,meteohub,2013-05-03 00:22:00,
2013-05-02 20:27:00,73.4,23.0,-100.00,SE,129,9.0,17.0,15,0.06,,,0.02,0.0,meteohub,2013-05-03 00:27:00,
2013-05-02 20:32:00,73.2,22.8,-100.00,ESE,111,6.0,20.0,15,0.05,,,0.02,0.0,meteohub,2013-05-03 00:32:00,
2013-05-02 20:37:00,73.4,23.0,-100.00,SSW,196,3.0,20.0,15,0.04,,,0.02,0.0,meteohub,2013-05-03 00:37:00,
2013-05-02 20:47:00,73.8,23.2,-100.00,South,189,5.0,13.0,15,0.03,,,0.02,0.0,meteohub,2013-05-03 00:47:00,
2013-05-02 20:52:00,73.8,23.2,-100.00,SE,140,13.0,16.0,15,0.03,,,0.02,0.0,meteohub,2013-05-03 00:52:00,
2013-05-02 20:57:00,73.9,25.0,-100.00,SSW,211,11.0,18.0,16,0.02,,,0.02,0.0,meteohub,2013-05-03 00:57:00,
2013-05-02 21:02:00,73.9,25.0,-100.00,SE,139,6.0,20.0,16,0.02,,,0.02,0.0,meteohub,2013-05-03 01:02:00,
2013-05-02 21:07:00,73.8,24.8,-100.00,SSW,199,9.0,20.0,16,0.01,,,0.02,0.0,meteohub,2013-05-03 01:07:00,
2013-05-02 21:12:00,73.9,23.4,-100.00,SW,219,11.0,19.0,15,0.01,,,0.02,0.0,meteohub,2013-05-03 01:12:00,
2013-05-02 21:17:00,73.8,23.2,-100.00,SE,126,13.0,19.0,15,0.01,,,0.02,0.0,meteohub,2013-05-03 01:17:00,
2013-05-02 21:22:00,73.6,23.0,-100.00,East,83,7.0,17.0,15,0.00,,,0.02,0.0,meteohub,2013-05-03 01:22:00,
2013-05-02 21:27:00,73.6,24.6,-100.00,SW,219,7.0,20.0,16,0.00,,,0.02,0.0,meteohub,2013-05-03 01:27:00,
2013-05-02 21:32:00,73.6,23.0,-100.00,ESE,107,6.0,20.0,15,0.00,,,0.02,0.0,meteohub,2013-05-03 01:32:00,
2013-05-02 21:37:00,73.8,23.2,-100.00,SW,217,13.0,20.0,15,0.00,,,0.02,0.0,meteohub,2013-05-03 01:37:00,
2013-05-02 21:42:00,73.9,25.0,-100.00,SE,144,11.0,18.0,16,0.00,,,0.02,0.0,meteohub,2013-05-03 01:42:00,
2013-05-02 21:47:00,73.9,23.4,-100.00,WSW,252,11.0,18.0,15,0.00,,,0.02,0.0,meteohub,2013-05-03 01:47:00,
2013-05-02 21:52:00,73.9,23.4,-100.00,SSW,211,10.0,18.0,15,0.00,,,0.02,0.0,meteohub,2013-05-03 01:52:00,
2013-05-02 21:57:00,73.9,23.4,-100.00,West,270,5.0,18.0,15,0.00,,,0.02,0.0,meteohub,2013-05-03 01:57:00,
2013-05-02 22:02:00,74.3,23.7,-100.00,SW,219,5.0,17.0,15,0.00,,,0.02,0.0,meteohub,2013-05-03 02:02:00,
2013-05-02 22:07:00,74.7,23.9,-100.00,SSW,192,6.0,17.0,15,0.00,,,0.02,0.0,meteohub,2013-05-03 02:07:00,
2013-05-02 22:12:00,74.8,24.1,-100.00,SSW,209,7.0,17.0,15,0.00,,,0.02,0.0,meteohub,2013-05-03 02:12:00,
2013-05-02 22:17:00,73.9,23.4,-100.00,WSW,253,13.0,16.0,15,0.00,,,0.02,0.0,meteohub,2013-05-03 02:17:00,
2013-05-02 22:22:00,73.9,23.4,-100.00,WSW,248,11.0,17.0,15,0.00,,,0.02,0.0,meteohub,2013-05-03 02:22:00,
2013-05-02 22:27:00,73.9,23.4,-100.00,SSE,159,4.0,17.0,15,0.00,,,0.02,0.0,meteohub,2013-05-03 02:27:00,
2013-05-02 22:32:00,73.9,23.4,-100.00,South,186,7.0,17.0,15,0.00,,,0.02,0.0,meteohub,2013-05-03 02:32:00,
2013-05-02 22:37:00,74.1,23.5,-100.00,North,10,6.0,14.0,15,0.00,,,0.02,0.0,meteohub,2013-05-03 02:37:00,
2013-05-02 22:42:00,74.5,23.7,-100.00,West,277,4.0,12.0,15,0.00,,,0.02,0.0,meteohub,2013-05-03 02:42:00,
2013-05-02 22:47:00,74.7,23.9,-100.00,SE,128,9.0,16.0,15,0.00,,,0.02,0.0,meteohub,2013-05-03 02:47:00,
2013-05-02 22:52:00,74.5,23.7,-100.00,SW,217,10.0,16.0,15,0.00,,,0.02,0.0,meteohub,2013-05-03 02:52:00,
2013-05-02 22:57:00,74.8,24.1,-100.00,South,188,9.0,16.0,15,0.00,,,0.02,0.0,meteohub,2013-05-03 02:57:00,
2013-05-02 23:02:00,75.0,24.3,-100.00,SSW,207,6.0,16.0,15,0.00,,,0.02,0.0,meteohub,2013-05-03 03:02:00,
2013-05-02 23:07:00,74.8,24.1,-100.00,SSW,213,5.0,16.0,15,0.00,,,0.02,0.0,meteohub,2013-05-03 03:07:00,
2013-05-02 23:12:00,75.0,24.3,-100.00,SSW,202,6.0,16.0,15,0.00,,,0.02,0.0,meteohub,2013-05-03 03:12:00,
2013-05-02 23:17:00,74.8,24.1,-100.00,South,175,12.0,16.0,15,0.00,,,0.02,0.0,meteohub,2013-05-03 03:17:00,
2013-05-02 23:22:00,75.0,24.3,-100.00,SSE,159,10.0,17.0,15,0.00,,,0.02,0.0,meteohub,2013-05-03 03:22:00,
2013-05-02 23:27:00,75.0,25.7,-100.00,ESE,108,10.0,17.0,16,0.00,,,0.02,0.0,meteohub,2013-05-03 03:27:00,
2013-05-02 23:32:00,75.4,24.4,-100.00,South,182,11.0,18.0,15,0.00,,,0.02,0.0,meteohub,2013-05-03 03:32:00,
2013-05-02 23:37:00,75.4,24.4,-100.00,WSW,240,9.0,18.0,15,0.00,,,0.02,0.0,meteohub,2013-05-03 03:37:00,
2013-05-02 23:42:00,75.4,24.4,-100.00,SW,229,6.0,17.0,15,0.00,,,0.02,0.0,meteohub,2013-05-03 03:42:00,
2013-05-02 23:47:00,75.2,25.9,-100.00,ESE,111,6.0,17.0,16,0.00,,,0.02,0.0,meteohub,2013-05-03 03:47:00,
2013-05-02 23:52:00,75.0,27.3,-100.00,SSW,206,13.0,16.0,17,0.00,,,0.02,0.0,meteohub,2013-05-03 03:52:00,
2013-05-02 23:57:00,74.8,25.7,-100.00,SE,130,10.0,16.0,16,0.00,,,0.02,0.0,meteohub,2013-05-03 03:57:00,